• Em Portugal
  • Lista de países
  • Para 7 dias
  • Temperatura da água
  • Mapas de satélite
  • Mapa do tempo
  • Widgets de tempo
  • user-avatar
    Iniciar Sessão

    Previsão horária em Tiraspol

    Hoje, 22 Setembro, Sábado

    Tempo Temperatura Precipitação Vento Pressão Humidade
    00:00 +22°C° 0 mm 1 m/s 760 mmHg 47%
    01:00 +21°C° 0 mm 1 m/s 760 mmHg 48%
    02:00 +21°C° 0 mm 1 m/s 760 mmHg 50%
    03:00 +20°C° 0 mm 1 m/s 759 mmHg 51%
    04:00 +20°C° 0 mm 1 m/s 759 mmHg 52%
    05:00 +20°C° 0 mm 1 m/s 759 mmHg 54%
    06:00 +21°C° 0 mm 1 m/s 759 mmHg 50%
    07:00 +22°C° 0 mm 1 m/s 759 mmHg 47%
    08:00 +24°C° 0 mm 2 m/s 759 mmHg 44%
    09:00 +25°C° 0 mm 2 m/s 759 mmHg 39%
    10:00 +27°C° 0 mm 3 m/s 759 mmHg 34%
    11:00 +29°C° 0 mm 4 m/s 759 mmHg 29%
    12:00 +30°C° 0 mm 4 m/s 759 mmHg 27%
    13:00 +32°C° 0 mm 4 m/s 758 mmHg 25%
    14:00 +32°C° 0 mm 4 m/s 758 mmHg 23%
    15:00 +32°C° 0 mm 4 m/s 757 mmHg 26%
    16:00 +30°C° 0 mm 4 m/s 757 mmHg 28%
    17:00 +29°C° 0 mm 3 m/s 757 mmHg 30%
    18:00 +28°C° 0 mm 3 m/s 757 mmHg 34%
    19:00 +26°C° 0 mm 4 m/s 757 mmHg 38%
    20:00 +23°C° 0 mm 4 m/s 757 mmHg 42%
    21:00 +23°C° 0 mm 4 m/s 757 mmHg 45%
    22:00 +22°C° 0 mm 5 m/s 758 mmHg 47%
    23:00 +22°C° 0 mm 6 m/s 758 mmHg 50%

    Amanhã, 23 Setembro, Domingo

    Tempo Temperatura Precipitação Vento Pressão Humidade
    00:00 +20°C° 0 mm 6 m/s 758 mmHg 55%
    01:00 +18°C° 0 mm 7 m/s 759 mmHg 61%
    02:00 +16°C° 0 mm 7 m/s 759 mmHg 66%
    03:00 +16°C° 0.1 mm 7 m/s 759 mmHg 68%
    04:00 +15°C° 0.1 mm 7 m/s 760 mmHg 69%
    05:00 +14°C° 0.1 mm 6 m/s 760 mmHg 71%
    06:00 +14°C° 0 mm 6 m/s 760 mmHg 68%
    07:00 +14°C° 0 mm 5 m/s 761 mmHg 66%
    08:00 +14°C° 0 mm 5 m/s 761 mmHg 63%
    09:00 +16°C° 0 mm 5 m/s 761 mmHg 55%
    10:00 +18°C° 0 mm 4 m/s 761 mmHg 47%
    11:00 +20°C° 0 mm 4 m/s 762 mmHg 39%
    12:00 +20°C° 0 mm 4 m/s 761 mmHg 36%
    13:00 +21°C° 0 mm 3 m/s 761 mmHg 33%
    14:00 +22°C° 0 mm 3 m/s 761 mmHg 29%
    15:00 +22°C° 0 mm 3 m/s 761 mmHg 30%
    16:00 +23°C° 0 mm 2 m/s 761 mmHg 30%
    17:00 +23°C° 0 mm 2 m/s 761 mmHg 31%
    18:00 +21°C° 0 mm 2 m/s 761 mmHg 33%
    19:00 +20°C° 0 mm 1 m/s 761 mmHg 35%
    20:00 +19°C° 0 mm 1 m/s 761 mmHg 37%
    21:00 +18°C° 0 mm 2 m/s 760 mmHg 38%
    22:00 +17°C° 0 mm 3 m/s 760 mmHg 39%
    23:00 +17°C° 0 mm 3 m/s 760 mmHg 40%

    Depois de amanhã, 24 Setembro, Segunda-feira

    Tempo Temperatura Precipitação Vento Pressão Humidade
    00:00 +17°C° 0 mm 4 m/s 759 mmHg 45%
    01:00 +16°C° 0 mm 5 m/s 759 mmHg 50%
    02:00 +16°C° 0 mm 5 m/s 758 mmHg 55%
    03:00 +16°C° 0 mm 6 m/s 758 mmHg 58%
    04:00 +17°C° 0 mm 6 m/s 757 mmHg 62%
    05:00 +17°C° 0 mm 7 m/s 756 mmHg 66%
    06:00 +18°C° 0 mm 7 m/s 756 mmHg 66%
    07:00 +20°C° 0 mm 8 m/s 755 mmHg 67%
    08:00 +21°C° 0 mm 9 m/s 755 mmHg 67%
    09:00 +22°C° 0.1 mm 9 m/s 754 mmHg 64%
    10:00 +23°C° 0.1 mm 9 m/s 753 mmHg 62%
    11:00 +24°C° 0.1 mm 8 m/s 753 mmHg 59%
    12:00 +27°C° 0 mm 9 m/s 753 mmHg 53%
    13:00 +28°C° 0 mm 9 m/s 753 mmHg 48%
    14:00 +31°C° 0 mm 10 m/s 752 mmHg 42%
    15:00 +26°C° 0.1 mm 10 m/s 753 mmHg 48%
    16:00 +21°C° 0.1 mm 10 m/s 754 mmHg 54%
    17:00 +16°C° 0.1 mm 10 m/s 755 mmHg 60%
    18:00 +15°C° 0.1 mm 9 m/s 756 mmHg 59%
    19:00 +15°C° 0.1 mm 8 m/s 757 mmHg 57%
    20:00 +14°C° 0.1 mm 7 m/s 758 mmHg 55%
    21:00 +14°C° 0 mm 7 m/s 759 mmHg 57%
    22:00 +13°C° 0 mm 6 m/s 759 mmHg 59%
    23:00 +12°C° 0 mm 5 m/s 760 mmHg 61%

    25 Setembro, Terça-feira

    Tempo Temperatura Precipitação Vento Pressão Humidade
    00:00 +12°C° 0 mm 5 m/s 760 mmHg 61%
    01:00 +10°C° 0 mm 5 m/s 760 mmHg 62%
    02:00 +10°C° 0 mm 4 m/s 761 mmHg 62%
    03:00 +10°C° 0 mm 4 m/s 761 mmHg 61%
    04:00 +8°C° 0 mm 4 m/s 761 mmHg 61%
    05:00 +8°C° 0 mm 4 m/s 761 mmHg 60%
    06:00 +9°C° 0 mm 6 m/s 762 mmHg 58%
    07:00 +9°C° 0 mm 7 m/s 762 mmHg 55%
    08:00 +10°C° 0 mm 8 m/s 762 mmHg 53%
    09:00 +11°C° 0 mm 9 m/s 763 mmHg 50%
    10:00 +12°C° 0 mm 9 m/s 763 mmHg 48%
    11:00 +13°C° 0 mm 9 m/s 763 mmHg 45%
    12:00 +12°C° 0 mm 9 m/s 763 mmHg 48%
    13:00 +11°C° 0 mm 9 m/s 763 mmHg 51%
    14:00 +11°C° 0 mm 9 m/s 764 mmHg 54%
    15:00 +11°C° 0 mm 9 m/s 764 mmHg 53%
    16:00 +11°C° 0 mm 9 m/s 764 mmHg 51%
    17:00 +11°C° 0 mm 8 m/s 765 mmHg 50%
    18:00 +10°C° 0 mm 7 m/s 765 mmHg 51%
    19:00 +9°C° 0 mm 6 m/s 766 mmHg 53%
    20:00 +9°C° 0 mm 5 m/s 767 mmHg 54%
    21:00 +8°C° 0 mm 5 m/s 767 mmHg 56%
    22:00 +8°C° 0 mm 5 m/s 767 mmHg 57%
    23:00 +8°C° 0 mm 5 m/s 768 mmHg 59%

    26 Setembro, Quarta-feira

    Tempo Temperatura Precipitação Vento Pressão Humidade
    00:00 +7°C° 0 mm 5 m/s 768 mmHg 62%
    01:00 +7°C° 0 mm 5 m/s 768 mmHg 65%
    02:00 +6°C° 0 mm 5 m/s 769 mmHg 67%
    03:00 +6°C° 0 mm 5 m/s 769 mmHg 69%
    04:00 +6°C° 0 mm 5 m/s 770 mmHg 70%
    05:00 +6°C° 0 mm 5 m/s 770 mmHg 72%
    06:00 +5°C° 0 mm 6 m/s 770 mmHg 67%
    07:00 +7°C° 0 mm 6 m/s 771 mmHg 62%
    08:00 +8°C° 0 mm 7 m/s 771 mmHg 57%
    09:00 +9°C° 0 mm 7 m/s 771 mmHg 49%
    10:00 +11°C° 0 mm 7 m/s 772 mmHg 42%
    11:00 +12°C° 0 mm 7 m/s 772 mmHg 34%
    12:00 +14°C° 0 mm 7 m/s 772 mmHg 33%
    13:00 +14°C° 0 mm 7 m/s 771 mmHg 33%
    14:00 +15°C° 0 mm 6 m/s 771 mmHg 32%
    15:00 +15°C° 0 mm 6 m/s 771 mmHg 33%
    16:00 +14°C° 0 mm 5 m/s 771 mmHg 35%
    17:00 +14°C° 0 mm 4 m/s 771 mmHg 36%
    18:00 +13°C° 0 mm 3 m/s 771 mmHg 40%
    19:00 +12°C° 0 mm 2 m/s 771 mmHg 43%
    20:00 +11°C° 0 mm 1 m/s 772 mmHg 46%
    21:00 +11°C° 0 mm 1 m/s 771 mmHg 48%
    22:00 +10°C° 0 mm 1 m/s 771 mmHg 49%
    23:00 +10°C° 0 mm 1 m/s 771 mmHg 50%

    27 Setembro, Quinta-feira

    Tempo Temperatura Precipitação Vento Pressão Humidade
    00:00 +10°C° 0 mm 1 m/s 771 mmHg 51%
    01:00 +9°C° 0 mm 1 m/s 771 mmHg 52%
    02:00 +9°C° 0 mm 1 m/s 770 mmHg 53%
    03:00 +9°C° 0 mm 1 m/s 770 mmHg 54%
    04:00 +9°C° 0 mm 1 m/s 770 mmHg 55%
    05:00 +8°C° 0 mm 1 m/s 769 mmHg 55%
    06:00 +9°C° 0 mm 2 m/s 769 mmHg 51%
    07:00 +10°C° 0 mm 2 m/s 769 mmHg 47%
    08:00 +11°C° 0 mm 3 m/s 769 mmHg 44%
    09:00 +13°C° 0 mm 3 m/s 768 mmHg 38%
    10:00 +16°C° 0 mm 3 m/s 768 mmHg 33%
    11:00 +18°C° 0 mm 4 m/s 767 mmHg 27%
    12:00 +19°C° 0 mm 4 m/s 767 mmHg 25%
    13:00 +20°C° 0 mm 4 m/s 766 mmHg 22%
    14:00 +21°C° 0 mm 4 m/s 765 mmHg 20%
    15:00 +21°C° 0 mm 4 m/s 765 mmHg 21%
    16:00 +20°C° 0 mm 3 m/s 764 mmHg 23%
    17:00 +20°C° 0 mm 3 m/s 764 mmHg 24%
    18:00 +18°C° 0 mm 3 m/s 764 mmHg 26%
    19:00 +17°C° 0 mm 3 m/s 763 mmHg 27%
    20:00 +16°C° 0 mm 3 m/s 763 mmHg 29%
    21:00 +14°C° 0 mm 3 m/s 763 mmHg 30%
    22:00 +14°C° 0 mm 3 m/s 763 mmHg 32%
    23:00 +13°C° 0 mm 3 m/s 763 mmHg 33%
    Mostrar mais